Location: Street
(51.1247°N, 2.7429°W)
Time: 09:38:29
(UTC+00:00)

Tiros 1 - Pass Details

Date: 02 December 2020
Orbit: 630 x 663 km, 48.4° (Epoch: 21 January)

Event Time Altitude Azimuth Distance (km) Brightness Sun altitude
Rises 13:04:39 0° 189° (S) 2,981 12.4 15.5°
Reaches altitude 10° 13:08:29 10° 158° (SSE) 2,076 10.7 15.3°
Maximum altitude 13:10:13 12° 136° (SE) 1,954 10.1 15.2°
Drops below altitude 10° 13:11:57 10° 115° (ESE) 2,079 9.9 15.1°
Sets 13:15:48 0° 85° (E) 2,994 10.3 15.0°
